Weather History for Lincoln, NE

Change the Weather History Date:

Sunday, January 5, 2014

  Actual Average Record
Temperature  
Mean Temperature 3 °F 24 °F  
Max Temperature 12 °F 35 °F 68 °F (2012)
Min Temperature -7 °F 14 °F -20 °F (1940)
Degree Days  
Heating Degree Days 62 41  
Month to date heating degree days 264 202  
Since 1 July heating degree days 2882 2647  
Cooling Degree Days 0 0  
Month to date cooling degree days 0 0  
Year to date cooling degree days 0 0  
Moisture  
Dew Point -12 °F    
Average Humidity 53    
Maximum Humidity 69    
Minimum Humidity 37    
Precipitation  
Precipitation T in 0.02 in 0.69 in (1932)
Month to date precipitation 0.10 0.10  
Year to date precipitation 0.10 0.10  
Snow  
Snow T in 0.20 in - ()
Month to date snowfall 1.7 0.8  
Since 1 July snowfall 7.6 9.5  
Snow Depth T in    
Sea Level Pressure  
Sea Level Pressure 30.50 in    
Wind  
Wind Speed 21 mph (NNW)    
Max Wind Speed 32 mph    
Max Gust Speed 39 mph    
Visibility 10 miles    
Events Snow    
T = Trace of Precipitation, MM = Missing Value Source: NWS Daily Summary

Daily Weather History Graph

Daily Weather History Graph

Search for Another Location

Airport:

Trip Planner

Search our weather history database for the weather conditions in past years. The results will help you decide how hot, cold, wet, or windy it might be!

Date:

Astronomy

Jan. 05, 2014 Rise Set
Actual Time 7:51 AM CST 5:13 PM CST
Civil Twilight 7:20 AM CST 5:44 PM CST
Nautical Twilight 6:46 AM CST 6:18 PM CST
Astronomical Twilight 6:13 AM CST 6:51 PM CST
Moon 10:31 AM CST (1/5) 10:45 PM CST (1/5)
Length of Visible Light 10h 23m
Length of Day
9h 22m
Waxing Crescent, 25% of the Moon is Illuminated
Jan 5
Waxing Crescent
Jan 7
First Quarter
Jan 15
Full
Jan 23
Last Quarter
Jan 30
New

Hourly Weather History & Observations

Time (CST) Temp. Windchill Dew Point Humidity Pressure Visibility Wind Dir Wind Speed Gust Speed Precip Events Conditions
12:54 AM 7.0 °F -10.4 °F -2.9 °F 64% 30.32 in 10.0 mi North 15.0 mph - N/A   Clear
1:54 AM 6.1 °F -13.3 °F -4.0 °F 63% 30.33 in 10.0 mi North 18.4 mph - N/A   Clear
2:54 AM 5.0 °F -16.7 °F -4.0 °F 66% 30.33 in 10.0 mi North 23.0 mph 28.8 mph N/A   Clear
3:54 AM 5.0 °F -15.7 °F -5.1 °F 63% 30.35 in 10.0 mi North 20.7 mph - N/A   Scattered Clouds
4:54 AM 5.0 °F -15.7 °F -7.1 °F 58% 30.35 in 10.0 mi North 20.7 mph - N/A   Mostly Cloudy
5:54 AM 3.9 °F -17.1 °F -9.0 °F 55% 30.37 in 10.0 mi North 20.7 mph 29.9 mph N/A   Mostly Cloudy
6:54 AM 3.9 °F -17.1 °F -11.0 °F 50% 30.40 in 10.0 mi North 20.7 mph 34.5 mph N/A   Overcast
7:54 AM 1.9 °F -21.6 °F -14.1 °F 47% 30.44 in 10.0 mi North 25.3 mph 33.4 mph N/A   Overcast
8:54 AM 1.0 °F -21.4 °F -14.1 °F 49% 30.46 in 10.0 mi North 21.9 mph 32.2 mph N/A   Overcast
9:54 AM 3.9 °F -19.0 °F -11.9 °F 48% 30.48 in 10.0 mi North 25.3 mph 34.5 mph N/A   Overcast
10:54 AM 5.0 °F -17.5 °F -9.0 °F 52% 30.51 in 10.0 mi North 25.3 mph - N/A   Overcast
11:54 AM 8.1 °F -12.6 °F -8.0 °F 48% 30.49 in 10.0 mi North 23.0 mph - N/A   Scattered Clouds
12:54 PM 9.0 °F -11.0 °F -7.1 °F 48% 30.48 in 10.0 mi North 21.9 mph 29.9 mph N/A   Overcast
1:54 PM 10.9 °F -8.8 °F -7.1 °F 44% 30.48 in 10.0 mi North 23.0 mph 33.4 mph N/A   Scattered Clouds
2:54 PM 10.0 °F -11.1 °F -7.1 °F 46% 30.50 in 10.0 mi North 26.5 mph 33.4 mph N/A   Overcast
3:54 PM 9.0 °F -12.6 °F -8.0 °F 46% 30.53 in 10.0 mi North 26.5 mph 34.5 mph N/A   Mostly Cloudy
4:54 PM 8.1 °F -12.2 °F -13.0 °F 38% 30.56 in 10.0 mi NW 21.9 mph 29.9 mph N/A   Partly Cloudy
5:54 PM 6.1 °F -14.3 °F -15.0 °F 38% 30.58 in 10.0 mi NW 20.7 mph 32.2 mph N/A   Scattered Clouds
6:54 PM 1.9 °F -22.0 °F -13.0 °F 50% 30.62 in 10.0 mi North 26.5 mph 34.5 mph N/A   Partly Cloudy
7:09 PM 1.0 °F -21.9 °F -9.0 °F 63% 30.53 in 6.0 mi NNW 23.0 mph - 0.00 in   Mostly Cloudy
7:11 PM -0.0 °F -23.3 °F -9.9 °F 63% 30.53 in 6.0 mi NNW 23.0 mph 28.8 mph 0.00 in Snow Blowing Snow
7:18 PM -0.0 °F -25.1 °F -14.1 °F 52% 30.54 in 6.0 mi NNW 27.6 mph 34.5 mph 0.00 in Snow Blowing Snow
7:54 PM -0.9 °F -22.4 °F -16.1 °F 49% 30.64 in 10.0 mi NNW 18.4 mph 28.8 mph 0.00 in   Clear
8:54 PM -2.9 °F -23.8 °F -17.0 °F 51% 30.66 in 10.0 mi NNW 16.1 mph - N/A   Clear
9:13 PM -4.0 °F -27.0 °F -16.1 °F 56% 30.56 in 10.0 mi NNW 19.6 mph - N/A   Mostly Cloudy
9:30 PM -4.0 °F -27.0 °F -20.0 °F 46% 30.57 in 10.0 mi NW 19.6 mph 28.8 mph N/A   Scattered Clouds
9:54 PM -5.1 °F -28.4 °F -20.9 °F 47% 30.66 in 10.0 mi NW 19.6 mph 26.5 mph N/A   Clear
10:54 PM -6.0 °F -27.7 °F -20.9 °F 49% 30.66 in 10.0 mi NW 16.1 mph - N/A   Clear
11:54 PM -7.1 °F -25.9 °F -20.9 °F 51% 30.63 in 10.0 mi NW 11.5 mph - N/A   Clear